Regional Weather Roundup
Issued by NWS Midland/Odessa, TX

Home | Current Version | Previous Version | Text Only | Print | Product List | Glossary On
Versions: 1 2 3 4 5 6 7 8 9 10 11 12 13 14 15 16 17 18 19 20 21 22 23 24 25 26 27 28 29 30 31 32 33 34 35 36 37 38 39 40 41 42 43 44 45 46 47 48 49 50
000
ASUS44 KMAF 221210
RWRMAF
MIDLAND AREA WEATHER ROUNDUP
NATIONAL WEATHER SERVICE MIDLAND TX
700 AM CDT TUE JUL 22 2014

...IN SOUTHWEST TEXAS AND SOUTHEAST NEW MEXICO...

CITY           SKY/WX    TMP DP  RH WIND       PRES   REMARKS
ALPINE         PTCLDY    68  64  88 S5        30.24R
ANDREWS        NOT AVBL
ARTESIA        PTCLDY    77  64  65 SE10      30.14R
BIG SPRING       N/A     79  69  72 SE7       30.13R
CARLSBAD       CLEAR     77  66  68 E8        30.12R
DRYDEN           N/A     80  72  76 E5        30.05R
FORT STOCKTON  CLEAR     75  67  76 S12       30.09R
GUAD PASS      CLEAR     70  59  68 NE15      30.26R
HOBBS          CLEAR     73  61  64 NE8       30.19
MARFA          PTCLDY    64  63  94 CALM      30.23R
MIDLAND AIRPK  MOCLDY    80  70  73 SE7       30.12R
MIDLAND INTL   MOCLDY    77  70  79 SE8       30.11R
ODESSA         MOCLDY    79  69  71 SE10      30.12R
PECOS          PTCLDY    75  68  78 NE3       30.06R
PRESIDIO       FAIR      82  65  57 NE7       30.06R
SEMINOLE       PTCLDY    76  63  63 N3        30.17R
SNYDER         PTCLDY    75  68  77 S7        30.11R
WINK           CLEAR     78  70  76 E7        30.08R
$$
...OTHER STATIONS IN TEXAS...

CITY           SKY/WX    TMP DP  RH WIND       PRES   REMARKS
ABILENE        MOCLDY    76  70  82 SE7       30.08R
AMARILLO       MOCLDY    71  62  73 SE3       30.15R
AUSTIN         MOCLDY    75  73  93 CALM      30.05R
BROWNSVILLE    CLOUDY    78  77  96 SE6       29.98R
CORPUS CHRISTI MOCLDY    79  77  94 SE8       30.00R
DALLAS FTW     MOCLDY    77  72  84 E5        30.05R HAZE
DEL RIO        PTCLDY    79  72  79 E8        30.00R
EL PASO        PTCLDY    78  58  49 S7        30.11R
HOUSTON INT    PTCLDY    77  75  93 CALM      30.03R
LUBBOCK        CLOUDY    73  65  75 SE7       30.12F
SAN ANGELO     MOCLDY    73  68  84 CALM      30.07R
SAN ANTONIO    MOCLDY    77  74  90 S7        30.05R
WACO           PTCLDY    77  74  90 SE5       30.04R
WICHITA FALLS  NOT AVBL
$$
...OTHER LOCATIONS IN NEW MEXICO...

CITY           SKY/WX    TMP DP  RH WIND       PRES   REMARKS
ALAMAGORDO     CLEAR     68  52  56 CALM      30.15S
ALBUQUERQUE    MOCLDY    77  50  38 NE3       30.26R
CANNON AFB     CLEAR     67  64  90 W10       30.17S
CLOVIS         NOT AVBL
HOLLOMAN AFB   CLEAR     69  53  55 NE6       30.13S
ROSWELL        PTCLDY    74  63  68 SE5       30.14S
RUIDOSO        CLEAR     63  48  59 MISG      30.40R
SANTA FE       PTCLDY    64  50  60 S5        30.35R
TRUTH OR CONSE PTCLDY    73  51  46 NE7       30.19R
TUCUMCARI      CLEAR     69  62  78 W9        30.16S
$$


USA.gov is the U.S. government's official web portal to all federal, state and local government web resources and services.